Location: Ablon
(48.7273°N, 2.4269°E)
Time: 17:35:47
(UTC+00:00)

Daily predictions for brighter satellites

Satellite Brightness Start Highest point End
(mag) Time Altitude Azimuth Time Altitude Azimuth Time Altitude Azimuth
Terra 3.9 20:01:43 10° E 20:04:20 15° NE 20:06:55 10° NNE
USA 215 3.9 19:58:46 10° NE 20:05:11 60° NNW 20:11:36 10° W
Meteor 1-11 Rocket 4.3 20:01:43 10° N 20:07:29 48° ENE 20:13:06 10° SE
Cosmos 1340 Rocket 4.4 20:05:47 10° NNE 20:08:59 21° ENE 20:12:08 10° ESE
Resurs 1-3 3.9 20:07:12 10° S 20:11:34 71° WSW 20:15:58 10° NNW
Cosmos 1898 Rocket 4.4 20:09:20 10° SSE 20:13:56 31° E 20:18:34 10° NE
CZ-2C R/B 4.3 20:12:24 10° NNE 20:16:37 36° E 20:20:53 10° SSE
Cosmos 923 Rocket 4.1 20:14:20 10° NNW 20:19:37 76° ENE 20:24:56 10° SSE
USA 245 3.6 20:18:58 11° ESE 20:20:49 23° ENE 20:22:58 10° N
ARIANE 5 R/B 3.5 20:19:01 10° SE 20:22:54 33° ENE 20:26:48 10° N
Cosmos 1271 Rocket 2.8 20:19:11 10° S 20:23:08 63° E 20:27:06 10° NNE
Cosmos 2278 Rocket 2.8 20:21:07 10° SW 20:26:44 64° WNW 20:32:23 10° NNE
Cosmos 1461 4.0 20:23:04 10° S 20:27:06 29° ESE 20:31:05 10° ENE
Cosmos 2369 Rocket 3.7 20:26:36 10° SE 20:30:05 17° E 20:33:38 10° ENE
Cosmos 1666 2.8 20:27:02 10° NNW 20:30:45 72° W 20:34:27 10° S
Cosmos 1818 3.8 20:26:04 10° NW 20:31:33 68° NE 20:36:36 12° SE
Meteor 1-10 Rocket 4.2 20:26:42 10° S 20:32:17 74° E 20:38:02 10° NNE
Landsat 7 3.8 20:28:53 10° SSE 20:33:39 90° SW 20:38:26 10° NNW
SL-24 R/B - RUBIN 2 4.0 20:28:20 10° NW 20:33:52 84° SW 20:38:18 12° SE
Cosmos 1536 3.1 20:32:43 10° N 20:36:40 50° ENE 20:40:06 13° SSE
ERBS 2.2 20:34:23 10° NW 20:37:42 89° SW 20:40:21 15° SE
SPOT 5 3.7 20:39:51 13° SE 20:44:15 43° ENE 20:49:19 10° N
Cosmos 2154 Rocket 4.1 20:38:27 10° N 20:44:46 69° ENE 20:50:44 11° SSE
Cosmos 1812 4.0 20:42:03 10° SSW 20:45:44 43° WNW 20:49:27 10° N
OBJECT-B 3.8 20:44:28 10° WSW 20:45:47 12° W 20:47:06 10° WNW
Nadezhda 1 Rocket 4.1 20:40:10 10° S 20:46:19 60° E 20:52:23 10° NNE
Cosmos 2074 Rocket 4.2 20:40:58 10° N 20:47:18 80° W 20:53:34 10° S
Cosmos 2184 Rocket 4.1 20:44:38 10° NNW 20:50:51 78° W 20:56:59 10° S
ERS-1 Rocket 3.4 20:49:06 15° SE 20:53:06 50° ENE 20:57:58 10° N
ISS -3.7 20:53:06 10° WSW 20:56:29 83° NNW 20:59:52 10° ENE
Cosmos 2112 Rocket 4.1 20:52:34 10° NNW 20:57:58 82° WSW 21:02:28 15° SSE
Cosmos 1869 Rocket 3.6 20:55:53 10° NNW 21:00:16 81° W 21:04:04 13° S
Cosmos 967 Rocket 4.4 20:55:04 10° SSW 21:01:18 72° ESE 21:07:34 10° NE
Spot 2 Rocket 3.5 21:00:39 14° SSE 21:04:57 89° E 21:10:02 10° NNW
JB-3 4.3 21:01:19 10° NNE 21:05:07 56° E 21:08:00 16° S
Cosmos 1937 Rocket 3.5 21:00:06 10° S 21:05:08 58° ESE 21:10:14 10° NNE
Cosmos 44 4.1 21:00:51 10° NW 21:06:04 49° WSW 21:10:07 15° S
Cosmos 2228 Rocket 3.3 21:03:25 10° SSW 21:07:51 72° W 21:12:23 10° N
Cosmos 1743 2.8 21:04:48 10° N 21:08:39 62° ENE 21:11:01 22° SSE
SPOT 1/Viking Rocket 3.9 21:05:52 11° S 21:10:46 63° WSW 21:15:56 10° NNW
RESURS DK-1 3.6 21:07:28 10° NNW 21:11:16 33° NE 21:13:58 17° ESE
Resurs 01 Rocket 3.3 21:09:41 10° SSW 21:13:34 29° W 21:17:29 10° NW
Cosmos 2084 Rocket 4.2 21:09:29 10° NW 21:13:35 44° SW 21:16:25 19° S
Cosmos 1707 Rocket 3.6 21:14:44 17° S 21:18:02 65° E 21:22:27 10° NNE
Meteor 1-27 Rocket 4.0 21:12:36 10° SSW 21:18:30 78° WNW 21:24:29 10° N
CARTOSAT-1 3.6 21:15:33 18° S 21:18:44 76° WSW 21:23:05 10° NNW
Cosmos 1680 Rocket 4.4 21:17:35 10° NNW 21:22:40 45° WSW 21:26:59 14° S
Cosmos 858 Rocket 4.4 21:18:54 10° SSW 21:24:06 79° ESE 21:29:23 10° NNE
Cosmos 1867 4.0 21:23:54 14° S 21:28:11 42° ESE 21:33:19 10° NE
SJ 16-02 4.0 21:25:01 10° WSW 21:28:29 22° NW 21:31:59 10° N
Tianhe-1 2.8 21:26:18 10° WSW 21:28:08 20° SSW 21:28:08 20° SSW
DNEPR-1 R/B 4.1 21:23:23 10° SW 21:29:18 84° NW 21:34:11 10° NE
Cosmos 2181 Rocket 4.3 21:25:49 21° SSE 21:29:45 49° E 21:35:37 10° NNE
Meteor 1-19 Rocket 4.4 21:28:38 22° SSE 21:31:53 50° E 21:37:07 10° NNE
Cosmos 2297 4.0 21:28:13 10° SW 21:33:53 72° WNW 21:39:34 10° NNE
Cosmos 44 Rocket 4.4 21:29:31 10° NNW 21:34:30 41° NE 21:38:15 16° ESE
BREEZE-M R/B 1.6 21:33:15 10° WNW 21:35:39 84° SSW 21:36:27 41° ESE
SL-27 R/B 4.0 21:34:02 10° N 21:36:51 24° ENE 21:38:02 20° E
BREEZE M DEB (TANK) 2.8 21:34:48 10° W 21:37:17 24° SW 21:37:17 24° SW
Cosmos 372 Rocket 3.9 21:36:41 17° S 21:40:30 66° ESE 21:45:35 10° NNE
Cosmos 1544 4.2 21:37:58 10° NNW 21:41:21 37° W 21:43:38 18° SSW
Terra 1.8 21:38:38 25° SSE 21:41:23 89° SW 21:46:12 10° NNW
Cosmos 1515 3.6 21:39:36 26° S 21:41:39 88° E 21:45:28 10° N
Cosmos 1733 Rocket 3.0 21:38:37 10° N 21:42:58 86° W 21:45:11 28° S
Cosmos 1943 Rocket 2.3 21:38:29 10° SSW 21:44:07 77° WNW 21:49:44 10° NNE
Cosmos 2082 Rocket 4.3 21:40:50 10° WNW 21:44:29 18° W 21:48:07 10° SW
Cosmos 1340 Rocket 4.0 21:41:47 10° NNW 21:45:34 38° W 21:48:11 17° SSW
USA 215 4.4 21:41:32 10° ENE 21:47:38 43° N 21:53:44 10° WNW
Cosmos 1656 Rocket 4.0 21:46:52 26° SSE 21:49:27 44° ESE 21:54:41 10° NE
ATLAS 2AS CENTAUR R/B 3.9 21:44:22 10° NW 21:50:37 32° WSW 21:55:12 15° SSW
Cosmos 2341 Rocket 4.1 21:44:24 10° NNW 21:50:50 77° W 21:55:10 22° S
Okean 1 3.2 21:49:16 28° S 21:51:19 87° W 21:55:19 10° N
Cosmos 2218 Rocket 4.0 21:47:53 10° N 21:54:15 78° E 21:58:01 26° SSE
Cosmos 494 Rocket 4.4 21:53:12 10° NNW 21:58:17 52° ENE 22:00:49 27° SE
ARIANE 5 R/B 4.1 21:56:25 14° SSW 21:59:23 29° W 22:03:10 10° NW
SL-8 Rocket 4.1 21:56:34 10° N 22:02:55 79° W 22:06:44 25° S
H-2A R/B 3.5 21:59:38 10° NNE 22:03:49 80° WNW 22:05:59 27° SSW
Cosmos 1908 Rocket 3.7 22:00:31 10° N 22:04:58 62° ENE 22:06:34 37° SE
Cosmos 2298 Rocket 4.3 22:02:56 31° SSE 22:05:06 51° ESE 22:10:14 10° NNE
Cosmos 1461 4.1 22:01:28 10° WSW 22:06:01 49° NW 22:10:30 10° NNE
Cosmos 2369 Rocket 2.2 22:08:17 13° SSW 22:13:21 84° WNW 22:19:03 10° NNE
ATLAS CENTAUR R/B 0.9 22:12:29 44° SSW 22:13:32 73° SE 22:17:21 10° NE
NOSS 2-1 (D) 4.4 22:13:03 10° NW 22:17:39 62° NE 22:21:25 24° ESE
Cosmos 1238 Rocket 4.2 22:15:14 10° NNW 22:20:36 46° W 22:23:11 24° SSW
Okean 1-7 3.2 22:21:21 44° SE 22:22:19 56° E 22:26:33 10° NNE
SPOT 5 4.4 22:19:04 17° SSW 22:22:25 32° W 22:27:11 10° NNW
COSMOS 2487 4.0 22:21:26 10° N 22:24:15 24° ENE 22:24:59 22° E
Cosmos 2344 4.3 22:17:12 10° NW 22:26:14 81° NE 22:35:50 19° SE
Spot 4 4.1 22:24:53 35° SE 22:26:42 58° ENE 22:31:29 10° N
Cosmos 2242 Rocket 3.5 22:27:54 45° SSE 22:29:12 73° E 22:33:42 10° NNE
Cosmos 2150 Rocket 3.9 22:28:56 33° S 22:31:22 77° ESE 22:36:38 10° NNE
Cosmos 1975 3.5 22:28:31 10° NNW 22:32:20 45° W 22:33:30 34° SW
Cosmos 1125 Rocket 3.5 22:31:07 38° S 22:33:00 64° ESE 22:38:10 10° NNE
ISS -2.8 22:30:13 10° WNW 22:33:31 49° N 22:36:27 12° ENE
Cosmos 1703 Rocket 3.5 22:34:26 47° S 22:35:38 80° E 22:40:06 10° NNE
Cosmos 1782 Rocket 3.5 22:33:21 10° N 22:37:50 75° E 22:38:55 49° SSE
Cosmos 1378 3.5 22:38:54 48° ESE 22:39:01 48° E 22:42:38 10° NNE
Cosmos 1607 4.2 22:39:43 10° SW 22:46:10 73° NW 22:52:42 10° NE
Cosmos 724 4.4 22:46:12 31° SSW 22:49:15 69° ESE 22:55:28 10° NE
RESURS DK-1 3.5 22:45:35 10° NW 22:49:15 31° WSW 22:49:50 29° SW
Lacrosse 5 1.9 22:48:53 44° S 22:50:06 56° SE 22:55:05 10° ENE
Cosmos 1934 Rocket 4.3 22:46:47 10° N 22:52:47 55° ENE 22:55:20 33° SE
Cosmos 1805 3.7 22:51:27 10° N 22:55:14 47° ENE 22:55:42 44° E
Cosmos 1066 Rocket 4.3 22:55:52 40° SSE 22:57:44 61° E 23:03:13 10° NNE
Cosmos 1356 Rocket 3.4 22:56:44 10° NNW 23:01:03 80° W 23:01:50 58° S
Cosmos 2227 Rocket 3.9 22:57:50 10° NNW 23:02:40 28° NE 23:07:26 10° ESE
Cosmos 2297 Rocket 3.5 22:59:28 10° NNW 23:04:39 35° NE 23:08:40 15° ESE
Cosmos 1821 Rocket 4.1 22:58:46 10° NNW 23:05:10 74° W 23:07:52 37° S
Okean 3 3.3 23:06:38 62° S 23:07:19 89° ESE 23:11:34 10° N
Meteor 1-12 Rocket 4.3 23:04:22 10° NNW 23:10:10 70° W 23:12:13 40° SSW
SL-27 R/B 4.1 23:09:04 10° NW 23:11:32 24° W 23:11:32 24° W
NOSS 2-1 (E) 4.3 23:10:11 10° NW 23:15:08 67° SW 23:17:30 39° SSE
Cosmos 44 Rocket 3.9 23:11:12 10° NW 23:16:06 42° WSW 23:16:57 39° SW
Cosmos 1766 3.5 23:12:56 10° N 23:16:50 56° ENE 23:17:13 53° ESE
Meteor 1-15 Rocket 4.2 23:11:56 10° N 23:17:44 86° ENE 23:19:48 43° SSE
Terra 4.2 23:17:57 10° WSW 23:19:51 12° W 23:21:44 10° WNW
Cosmos 2221 Rocket 3.7 23:23:40 54° SE 23:24:26 64° E 23:28:57 10° NNE
COSMOS 2455 3.0 23:19:37 10° NNW 23:25:40 73° NE 23:28:40 31° SE
ALOS 2 2.7 23:29:20 54° SW 23:30:01 63° WSW 23:34:24 10° NNW
USA 215 3.9 23:23:41 10° E 23:30:01 54° NNE 23:36:21 10° WNW
Nimbus 7 Rocket 4.4 23:24:37 10° NNE 23:30:31 69° ESE 23:32:34 42° S
COBE Rocket 4.0 23:31:00 48° S 23:32:24 75° WSW 23:37:37 10° NNW
Cosmos 1535 Rocket 4.5 23:27:13 10° N 23:33:33 86° W 23:36:02 40° S
Cosmos 1300 Rocket 3.5 23:29:19 10° NNW 23:33:40 68° W 23:34:19 58° SW
Cosmos 1269 Rocket 4.1 23:28:33 10° NNW 23:33:48 65° WSW 23:35:08 48° SSW
USA 81 4.2 23:29:34 10° N 23:34:51 63° E 23:36:30 42° SE
Cosmos 1470 3.9 23:32:15 10° N 23:35:51 33° ENE 23:36:35 31° E
Cosmos 2251 Rocket 4.3 23:35:14 10° NNW 23:40:18 46° ENE 23:42:54 26° ESE
EO 1 Del DPAF 4.4 23:42:41 10° NNE 23:45:57 30° E 23:45:57 30° E
Cosmos 1842 3.4 23:46:42 56° ESE 23:46:50 56° E 23:50:39 10° NNE
Cosmos 1733 3.5 23:43:10 10° NNW 23:46:54 54° W 23:46:57 54° W
Meteor 1-23 Rocket 4.3 23:46:20 40° SSW 23:48:30 76° WNW 23:54:21 10° N
Thor Agena Rocket 3.5 23:45:56 10° NNE 23:51:14 77° ESE 23:52:46 47° S
ATLAS CENTAUR R/B 3.8 23:50:05 10° W 23:52:52 19° NNW 23:55:44 10° NNE
